Vertical_Velocity
-0 -1 -2 -1 -3 -1 -1 -2 -2 -2 -1 -2 -3 -2 -1 -1 -0 -0 -2 -4 -2 -3 2 -1 2 4 -3 -1 -1 -5 -4 -1 2 -5 8 3 -9 -2 -1 8 5 -1 -4
-4 0 -4 -4 -3 -3 -0 -0 -1 -2 -2 -4 -3 -3 0 3 -1 -3 -5 -2 -6 -3 -7 -7 -8 -8 -2 2 2 -3 -4 -2 1 -6 -4 5 -2 -0 6 -1 6 -0 -0
-8 -4 -6 -4 -4 -1 -0 -1 -2 -5 -6 -5 -6 -3 -5 -3 -2 -0 -1 -2 -5 -2 -6 -6 -3 -4 -12 -9 -4 0 -2 -1 6 -5 -8 -0 3 -11 5 -3 -3 -2 -4
-7 -6 -4 -1 -1 -2 -3 -6 -4 -7 -7 -7 -8 -8 -6 -0 -1 -3 -3 -2 -5 1 3 -3 -7 -1 -2 -3 -1 2 -4 -3 9 0 3 -4 3 -10 -7 -7 -2 -1 -2
-4 -1 -3 -3 -1 -2 -3 -2 -3 -4 -6 -6 -5 -5 -0 -4 -3 -1 3 0 1 -5 -7 -2 2 1 1 3 -4 -6 -3 0 -1 6 5 3 2 -3 -6 -0 -7 -1 2
-2 -2 -1 -4 -3 -3 -3 -1 -4 -9 -7 -5 -4 -6 -3 -1 -2 -2 -3 -1 0 3 -2 -3 -2 -1 2 3 4 1 -3 -3 -3 3 -0 8 -8 11 -8 -10 4 0 4
-3 -1 0 -4 0 -4 -4 -6 -6 -7 -6 -3 -4 -5 0 -4 -2 -1 -1 -0 -2 -3 -1 -2 -3 -2 -2 0 1 3 4 -0 -3 4 2 0 6 4 5 -9 0 -5 3
1 -4 -2 -4 -6 -5 -4 -4 -4 -6 -5 -2 -5 -5 -3 -1 -1 -1 -2 -0 0 -0 -1 -1 -0 -0 1 1 0 -2 0 1 3 1 -3 2 4 5 3 -3 -3 -12 0
-5 -4 -4 -3 -7 -4 -3 -3 -5 -6 -4 -5 -3 -5 -2 -3 -2 -2 0 0 2 -2 -2 -1 -2 -2 -1 -0 3 -0 2 -2 1 4 1 -5 -2 3 3 -1 3 1 -3
-2 -4 -2 -3 -3 -1 -0 -3 -3 -4 -4 -1 -2 -2 0 0 -1 -2 1 1 1 0 3 3 1 -2 -1 -2 -2 -2 1 2 -0 4 8 7 7 1 3 1 -2 -5 5
-3 0 -3 -4 -2 1 -2 -1 -6 -6 -2 0 -3 -1 -5 -1 0 -3 -1 0 1 2 1 1 -0 -0 -1 -2 -1 -0 1 1 1 1 -1 1 0 -1 -1 3 -2 -1 -4
-5 -0 -4 -3 -0 -0 -2 -2 -4 -4 -1 -3 -1 1 2 1 -5 -4 2 4 4 1 0 0 -2 -1 -1 1 -0 -0 1 2 3 2 0 -0 0 1 3 2 -2 -2 2
-4 -2 -4 -2 -2 -1 -2 -2 -3 -3 -2 -1 4 3 5 6 5 5 6 4 2 2 -1 1 -1 1 0 0 -0 1 2 2 2 1 3 2 2 3 2 2 1 4 0
-2 -4 -2 -0 -3 -0 1 -4 -2 -1 -2 1 6 4 0 -2 -1 4 8 8 4 3 3 3 2 2 1 1 2 1 0 -0 0 1 2 1 1 1 0 3 4 0 -1
-4 -1 -3 -1 -2 -0 -0 -1 -2 -0 -2 11 -1 -6 -1 0 1 2 4 2 0 0 4 1 4 3 1 5 3 1 0 1 2 3 -2 1 0 1 -3 0 2 5 6
-3 -2 -2 -1 0 -0 -2 0 -1 2 0 3 -4 1 1 2 2 3 3 2 3 3 1 -1 2 1 1 1 1 2 3 3 4 5 5 3 2 0 -1 1 1 1 1
-1 -2 -2 -0 1 -1 -1 -1 -1 -1 1 -1 -6 -2 2 2 0 2 2 1 -0 4 2 2 0 1 -1 1 1 1 -0 -3 -1 2 2 5 6 5 2 2 5 1 1
-1 -1 -0 -1 1 -0 0 2 -0 1 1 -2 -3 1 0 2 1 1 2 1 1 -0 0 0 1 1 -0 -0 -1 0 1 2 3 1 -2 -4 -2 -2 0 3 9 7 5
-1 -0 -0 -1 1 1 1 -0 0 1 3 1 -2 1 0 1 -0 1 0 1 2 1 1 1 1 -1 -0 1 2 1 0 0 1 1 1 2 2 2 -1 -1 -1 1 4
-1 -1 -1 -0 1 1 -0 0 -1 2 0 -1 -0 0 -0 1 1 -1 1 -0 -0 -1 -1 -1 -0 -1 2 1 1 1 1 2 1 1 1 1 1 -1 -2 -2 0 3 2
-0 -1 -1 1 1 0 -1 1 1 2 2 -0 -0 0 1 2 0 0 -0 -1 1 1 1 -1 -1 -0 -1 -0 1 -2 -2 -2 -2 -2 -2 -2 -1 -1 -1 -2 -2 -2 -5
-1 -1 -0 1 1 0 -0 1 2 4 1 0 0 0 -0 1 1 0 0 1 -1 1 -0 0 0 -0 -1 -2 -2 -3 -3 -4 -6 -6 -5 -5 -5 -5 -2 -1 -1 -2 -3
-1 -1 0 -0 -1 -0 1 0 2 3 1 -0 1 0 0 -0 -1 0 1 0 -0 -1 -1 -2 -0 1 2 2 1 -1 -0 1 -0 -4 -4 -2 -2 0 -1 -3 -4 -4 -2
-0 -1 0 0 -2 -1 -0 0 2 1 2 -1 0 1 1 0 -0 1 -0 0 0 -1 -1 -2 -2 -1 -3 -2 -2 -1 0 -0 -2 -3 -5 -4 -4 -1 -1 -0 0 0 -2
0 0 0 0 -1 -0 1 1 0 2 2 -1 1 1 1 2 1 0 2 1 1 1 -1 -1 -3 -2 -2 -1 -1 -2 -2 -1 -3 -3 -2 -1 -4 -4 -4 -4 -4 -5 -4
-0 1 0 -0 -0 1 1 1 1 3 3 1 -1 0 1 1 1 0 -0 0 -0 -1 0 -1 -2 -2 -1 -3 -3 -3 -2 -4 -2 -2 -4 -4 -4 -4 -3 -4 -3 -3 -6
Height
5755 5751 5747 5744 5740 5736 5732 5728 5723 5719 5714 5711 5707 5703 5699 5696 5692 5690 5689 5688 5689 5689 5689 5689 5689 5689 5689 5689 5689 5689 5690 5693 5695 5696 5698 5702 5708 5713 5718 5723 5725 5727 5732
5743 5740 5736 5732 5727 5723 5718 5713 5708 5703 5699 5695 5691 5687 5683 5679 5677 5673 5670 5668 5666 5667 5667 5668 5670 5669 5670 5671 5672 5672 5673 5675 5678 5679 5681 5684 5691 5699 5705 5709 5714 5717 5720
5731 5727 5723 5719 5714 5709 5704 5698 5693 5688 5683 5678 5673 5668 5663 5660 5656 5653 5650 5647 5646 5644 5642 5642 5643 5646 5647 5651 5652 5653 5654 5657 5661 5661 5662 5667 5672 5677 5691 5694 5700 5705 5709
5719 5715 5710 5705 5700 5694 5690 5685 5679 5673 5666 5660 5655 5650 5645 5639 5633 5629 5625 5622 5619 5619 5619 5619 5619 5619 5620 5625 5628 5631 5633 5637 5643 5644 5646 5649 5653 5659 5669 5680 5687 5691 5696
5706 5702 5697 5693 5689 5684 5678 5670 5662 5655 5648 5642 5636 5631 5625 5619 5613 5609 5606 5602 5600 5597 5598 5599 5601 5601 5601 5603 5606 5608 5611 5615 5619 5624 5625 5629 5636 5643 5650 5663 5671 5678 5682
5694 5690 5686 5681 5676 5670 5663 5655 5647 5640 5633 5627 5619 5613 5608 5601 5597 5593 5590 5587 5585 5583 5582 5583 5584 5585 5585 5585 5586 5590 5593 5596 5599 5604 5607 5610 5617 5628 5632 5643 5656 5664 5671
5683 5679 5675 5669 5663 5656 5649 5641 5633 5625 5619 5612 5604 5598 5592 5588 5584 5580 5577 5575 5572 5571 5570 5569 5568 5568 5569 5570 5569 5572 5576 5579 5583 5587 5592 5596 5601 5608 5617 5623 5636 5644 5652
5672 5669 5664 5657 5651 5644 5637 5629 5621 5614 5606 5599 5592 5585 5579 5575 5572 5569 5567 5565 5563 5560 5557 5555 5554 5553 5552 5554 5555 5556 5559 5562 5567 5571 5577 5582 5587 5592 5600 5607 5615 5626 5634
5662 5658 5653 5647 5641 5634 5626 5618 5611 5604 5596 5589 5581 5574 5570 5567 5564 5560 5558 5555 5552 5549 5545 5542 5541 5539 5537 5537 5539 5542 5545 5548 5551 5556 5561 5565 5572 5578 5585 5593 5599 5608 5618
5653 5648 5643 5636 5630 5623 5616 5610 5604 5597 5590 5583 5576 5570 5565 5562 5557 5552 5549 5547 5545 5542 5538 5534 5532 5530 5529 5528 5528 5528 5530 5535 5538 5543 5548 5552 5559 5566 5574 5581 5587 5593 5602
5643 5638 5632 5626 5619 5613 5608 5604 5598 5591 5584 5578 5572 5567 5562 5557 5552 5546 5543 5542 5539 5536 5533 5531 5528 5526 5524 5523 5521 5520 5520 5524 5528 5533 5538 5542 5547 5554 5560 5566 5573 5581 5587
5634 5629 5622 5616 5610 5605 5601 5598 5592 5586 5580 5575 5570 5566 5561 5555 5549 5543 5540 5538 5536 5534 5531 5528 5527 5525 5523 5521 5519 5518 5517 5519 5522 5526 5530 5534 5538 5543 5549 5554 5559 5566 5574
5624 5619 5613 5607 5603 5599 5596 5592 5587 5581 5577 5574 5569 5564 5560 5555 5550 5544 5540 5536 5534 5532 5530 5528 5526 5524 5522 5521 5519 5518 5517 5518 5519 5522 5525 5528 5531 5535 5539 5544 5547 5553 5560
5614 5609 5604 5600 5596 5593 5590 5586 5583 5579 5575 5571 5570 5563 5559 5555 5551 5546 5542 5538 5535 5532 5530 5528 5526 5523 5521 5520 5518 5518 5518 5517 5518 5519 5520 5523 5525 5528 5532 5536 5541 5546 5552
5605 5600 5596 5593 5590 5587 5584 5581 5578 5576 5573 5570 5567 5564 5561 5559 5556 5552 5547 5543 5538 5536 5533 5529 5527 5525 5523 5521 5519 5518 5517 5517 5518 5519 5519 5520 5522 5524 5527 5530 5534 5538 5543
5595 5592 5589 5586 5584 5581 5578 5576 5575 5573 5571 5569 5564 5565 5563 5562 5559 5556 5551 5548 5544 5541 5538 5535 5533 5529 5527 5525 5522 5520 5518 5517 5516 5517 5517 5518 5520 5521 5523 5523 5526 5529 5535
5586 5584 5581 5580 5577 5575 5573 5571 5570 5569 5567 5566 5565 5564 5564 5563 5561 5558 5554 5550 5547 5545 5542 5539 5536 5534 5531 5530 5527 5524 5522 5519 5517 5516 5516 5516 5517 5518 5519 5519 5521 5523 5525
5579 5577 5575 5573 5570 5568 5567 5567 5566 5565 5564 5564 5563 5565 5563 5562 5561 5558 5555 5552 5549 5547 5544 5541 5539 5536 5534 5532 5530 5528 5526 5525 5523 5521 5520 5518 5517 5517 5517 5518 5519 5520 5520
5572 5571 5568 5566 5564 5562 5562 5562 5562 5561 5561 5561 5561 5562 5561 5561 5560 5558 5555 5553 5551 5549 5546 5543 5540 5538 5536 5534 5532 5530 5528 5526 5525 5524 5523 5522 5520 5519 5518 5517 5516 5515 5516
5566 5564 5562 5560 5558 5557 5557 5557 5556 5555 5555 5557 5558 5558 5559 5558 5558 5556 5554 5552 5551 5549 5547 5545 5542 5539 5537 5534 5532 5530 5529 5527 5526 5524 5522 5521 5520 5519 5518 5517 5516 5515 5515
5558 5557 5555 5553 5552 5552 5551 5550 5550 5550 5551 5553 5554 5555 5555 5554 5554 5553 5552 5550 5549 5547 5545 5543 5541 5538 5535 5533 5531 5529 5527 5525 5524 5522 5521 5519 5517 5516 5513 5512 5511 5511 5510
5552 5551 5549 5547 5547 5546 5545 5544 5544 5545 5546 5547 5549 5550 5551 5550 5550 5549 5548 5547 5546 5544 5542 5540 5539 5537 5534 5531 5529 5527 5525 5524 5522 5520 5518 5516 5514 5512 5510 5508 5506 5504 5503
5545 5544 5543 5542 5541 5540 5539 5538 5538 5539 5540 5541 5543 5544 5545 5545 5544 5544 5543 5542 5541 5539 5537 5535 5533 5532 5530 5528 5526 5524 5522 5520 5517 5515 5513 5511 5509 5506 5504 5502 5501 5498 5496
5537 5537 5536 5535 5534 5534 5533 5532 5532 5532 5533 5535 5536 5538 5538 5538 5538 5537 5537 5536 5535 5533 5531 5530 5527 5525 5523 5521 5519 5517 5515 5513 5511 5509 5507 5504 5502 5499 5496 5493 5491 5488 5486
5530 5529 5528 5528 5527 5527 5526 5526 5525 5525 5526 5527 5529 5530 5531 5531 5531 5530 5529 5528 5527 5526 5524 5522 5520 5518 5515 5513 5511 5509 5506 5504 5501 5499 5497 5494 5492 5489 5487 5484 5480 5476 5473
5521 5520 5519 5519 5520 5520 5519 5518 5518 5518 5518 5519 5521 5522 5523 5523 5522 5521 5520 5519 5518 5516 5515 5513 5511 5509 5507 5504 5502 5499 5497 5494 5491 5489 5486 5483 5480 5476 5473 5470 5466 5462 5458